User: anonymous   Login
Location: Gu�tanj
(46.5431°N, 14.9692°E)
Time: 04:47:32
(UTC+00:00)
Language:

Cosmos 2218 Rocket - Orbit

View from above orbital plane
View from above orbital plane
View from above satellite
View from above satellite

Ground track
Ground track

The orbit data is extracted from the following two-line orbital elements,

1 22208U 92073B   21125.30282178  .00000029  00000-0  14315-4 0  9996
2 22208  82.9214  48.4386 0035362  44.2948  67.2577 13.75161484430646
Epoch (UTC): 05 May 2021 07:16:03
Eccentricity: 0.0035362
inclination: 82.9214°
perigee height: 955 km
apogee height: 1007 km
right ascension of ascending node: 48.4386°
argument of perigee: 44.2948°
revolutions per day: 13.75161484
mean anomaly at epoch: 67.2577°
orbit number at epoch: 43064

The dashed part of the orbit path shows where the satellite is in the earth's shadow,  

DLR